When you browse on this site, cookies collect data to enhance your experience and personalize the content and advertising you see.
Visit our Privacy Policy to learn more. By continuing to use the site, you agree to this use of cookies and data.
EN

Hourly Weather Baden-Baden

Today, 9 August, Sunday

Time Temperature Precipitation Wind Pressure Humidity
00:00 +23°C° 0 mm 1 mps 732 mmHg 60%
01:00 +23°C° 0 mm 1 mps 732 mmHg 59%
02:00 +23°C° 0 mm 1 mps 732 mmHg 61%
03:00 +22°C° 0 mm 1 mps 732 mmHg 63%
04:00 +20°C° 0 mm 0 mps 732 mmHg 65%
05:00 +21°C° 0 mm 0 mps 732 mmHg 65%
06:00 +22°C° 0 mm 0 mps 732 mmHg 65%
07:00 +22°C° 0 mm 0 mps 733 mmHg 65%
08:00 +26°C° 0 mm 1 mps 733 mmHg 58%
09:00 +28°C° 0 mm 1 mps 733 mmHg 52%
10:00 +30°C° 0 mm 1 mps 733 mmHg 45%
11:00 +31°C° 0 mm 2 mps 733 mmHg 42%
12:00 +32°C° 0 mm 2 mps 732 mmHg 38%
13:00 +35°C° 0 mm 3 mps 732 mmHg 35%
14:00 +35°C° 0 mm 3 mps 732 mmHg 35%
15:00 +35°C° 0 mm 3 mps 732 mmHg 35%
16:00 +35°C° 0 mm 3 mps 732 mmHg 35%
17:00 +33°C° 0 mm 3 mps 731 mmHg 42%
18:00 +30°C° 0 mm 3 mps 731 mmHg 48%
19:00 +28°C° 0 mm 3 mps 730 mmHg 55%
20:00 +27°C° 0 mm 2 mps 730 mmHg 58%
21:00 +25°C° 0 mm 2 mps 731 mmHg 61%
22:00 +24°C° 0 mm 2 mps 731 mmHg 64%
23:00 +23°C° 0 mm 2 mps 730 mmHg 67%

Tomorrow, 10 August, Monday

Time Temperature Precipitation Wind Pressure Humidity
00:00 +23°C° 0 mm 1 mps 730 mmHg 70%
01:00 +22°C° 0 mm 1 mps 730 mmHg 73%
02:00 +22°C° 0 mm 1 mps 730 mmHg 74%
03:00 +22°C° 0 mm 1 mps 730 mmHg 75%
04:00 +21°C° 0 mm 1 mps 730 mmHg 76%
05:00 +22°C° 0 mm 1 mps 730 mmHg 74%
06:00 +23°C° 0 mm 1 mps 730 mmHg 73%
07:00 +23°C° 0 mm 2 mps 730 mmHg 71%
08:00 +25°C° 0 mm 2 mps 730 mmHg 64%
09:00 +27°C° 0 mm 2 mps 730 mmHg 56%
10:00 +29°C° 0 mm 2 mps 730 mmHg 49%
11:00 +31°C° 0 mm 2 mps 730 mmHg 45%
12:00 +33°C° 0 mm 3 mps 730 mmHg 42%
13:00 +34°C° 0 mm 3 mps 730 mmHg 39%
14:00 +34°C° 0 mm 3 mps 730 mmHg 39%
15:00 +34°C° 0 mm 3 mps 730 mmHg 39%
16:00 +34°C° 0 mm 3 mps 730 mmHg 39%
17:00 +31°C° 0 mm 3 mps 730 mmHg 46%
18:00 +30°C° 0 mm 2 mps 729 mmHg 53%
19:00 +28°C° 0 mm 2 mps 729 mmHg 59%
20:00 +27°C° 0 mm 2 mps 729 mmHg 63%
21:00 +25°C° 0 mm 2 mps 730 mmHg 67%
22:00 +24°C° 0 mm 2 mps 730 mmHg 71%
23:00 +23°C° 0 mm 1 mps 730 mmHg 72%

Day after tomorrow, 11 August, Tuesday

Time Temperature Precipitation Wind Pressure Humidity
00:00 +23°C° 0 mm 1 mps 730 mmHg 74%
01:00 +23°C° 0 mm 1 mps 730 mmHg 75%
02:00 +22°C° 0 mm 1 mps 730 mmHg 76%
03:00 +22°C° 0 mm 1 mps 730 mmHg 77%
04:00 +22°C° 0 mm 1 mps 730 mmHg 78%
05:00 +22°C° 0.1 mm 1 mps 730 mmHg 78%
06:00 +23°C° 0.1 mm 1 mps 730 mmHg 77%
07:00 +23°C° 0.1 mm 1 mps 730 mmHg 76%
08:00 +25°C° 0 mm 1 mps 730 mmHg 69%
09:00 +27°C° 0 mm 1 mps 731 mmHg 62%
10:00 +29°C° 0 mm 1 mps 731 mmHg 55%
11:00 +30°C° 0.3 mm 1 mps 731 mmHg 52%
12:00 +31°C° 0.3 mm 1 mps 731 mmHg 48%
13:00 +32°C° 0.3 mm 1 mps 731 mmHg 45%
14:00 +32°C° 0.2 mm 1 mps 730 mmHg 44%
15:00 +33°C° 0.2 mm 1 mps 730 mmHg 44%
16:00 +33°C° 0.2 mm 1 mps 730 mmHg 43%
17:00 +31°C° 0.1 mm 1 mps 730 mmHg 50%
18:00 +30°C° 0.1 mm 1 mps 730 mmHg 56%
19:00 +28°C° 0.1 mm 2 mps 730 mmHg 63%
20:00 +27°C° 0 mm 2 mps 730 mmHg 67%
21:00 +25°C° 0 mm 2 mps 730 mmHg 71%
22:00 +24°C° 0 mm 1 mps 730 mmHg 74%
23:00 +23°C° 0 mm 1 mps 730 mmHg 75%

12 August, Wednesday

Time Temperature Precipitation Wind Pressure Humidity
00:00 +23°C° 0 mm 1 mps 730 mmHg 76%
01:00 +22°C° 0 mm 1 mps 730 mmHg 78%
02:00 +22°C° 0 mm 1 mps 730 mmHg 79%
03:00 +21°C° 0 mm 1 mps 730 mmHg 81%
04:00 +21°C° 0 mm 1 mps 730 mmHg 83%
05:00 +22°C° 0 mm 1 mps 730 mmHg 81%
06:00 +22°C° 0 mm 1 mps 730 mmHg 79%
07:00 +23°C° 0 mm 1 mps 730 mmHg 77%
08:00 +25°C° 0 mm 1 mps 730 mmHg 70%
09:00 +27°C° 0 mm 1 mps 730 mmHg 62%
10:00 +29°C° 0 mm 1 mps 730 mmHg 55%
11:00 +30°C° 0 mm 1 mps 730 mmHg 50%
12:00 +31°C° 0 mm 2 mps 730 mmHg 46%
13:00 +34°C° 0 mm 2 mps 730 mmHg 42%
14:00 +33°C° 0 mm 1 mps 730 mmHg 41%
15:00 +33°C° 0 mm 1 mps 729 mmHg 40%
16:00 +33°C° 0 mm 1 mps 729 mmHg 40%
17:00 +31°C° 0 mm 2 mps 729 mmHg 47%
18:00 +30°C° 0 mm 2 mps 728 mmHg 55%
19:00 +28°C° 0 mm 2 mps 728 mmHg 62%
20:00 +27°C° 0 mm 2 mps 728 mmHg 68%
21:00 +26°C° 0 mm 2 mps 728 mmHg 73%
22:00 +24°C° 0 mm 2 mps 728 mmHg 79%
23:00 +24°C° 0 mm 2 mps 728 mmHg 80%

13 August, Thursday

Time Temperature Precipitation Wind Pressure Humidity
00:00 +23°C° 0 mm 1 mps 728 mmHg 81%
01:00 +23°C° 0 mm 1 mps 728 mmHg 82%
02:00 +22°C° 0.5 mm 1 mps 728 mmHg 84%
03:00 +22°C° 0.5 mm 1 mps 728 mmHg 86%
04:00 +21°C° 0.5 mm 1 mps 727 mmHg 88%
05:00 +22°C° 0.3 mm 1 mps 728 mmHg 87%
06:00 +22°C° 0.3 mm 1 mps 728 mmHg 87%
07:00 +23°C° 0.3 mm 1 mps 728 mmHg 86%
08:00 +24°C° 0 mm 2 mps 728 mmHg 79%
09:00 +26°C° 0 mm 2 mps 729 mmHg 72%
10:00 +27°C° 0 mm 3 mps 729 mmHg 64%
11:00 +28°C° 0 mm 3 mps 729 mmHg 59%
12:00 +29°C° 0 mm 2 mps 729 mmHg 54%
13:00 +31°C° 0 mm 2 mps 729 mmHg 48%
14:00 +31°C° 0.1 mm 2 mps 728 mmHg 47%
15:00 +31°C° 0.1 mm 2 mps 728 mmHg 46%
16:00 +31°C° 0.1 mm 2 mps 728 mmHg 44%
17:00 +28°C° 1 mm 3 mps 728 mmHg 55%
18:00 +25°C° 1 mm 4 mps 727 mmHg 66%
19:00 +21°C° 1 mm 4 mps 727 mmHg 77%
20:00 +20°C° 0.9 mm 3 mps 728 mmHg 80%
21:00 +20°C° 0.9 mm 2 mps 728 mmHg 83%
22:00 +19°C° 0.9 mm 2 mps 728 mmHg 86%
23:00 +19°C° 0.1 mm 2 mps 728 mmHg 87%

14 August, Friday

Time Temperature Precipitation Wind Pressure Humidity
00:00 +19°C° 0.1 mm 2 mps 728 mmHg 87%
01:00 +18°C° 0.1 mm 2 mps 728 mmHg 87%
02:00 +18°C° 0.1 mm 2 mps 727 mmHg 88%
03:00 +18°C° 0.1 mm 2 mps 727 mmHg 89%
04:00 +18°C° 0.1 mm 2 mps 727 mmHg 89%
05:00 +18°C° 0.1 mm 2 mps 728 mmHg 89%
06:00 +18°C° 0.1 mm 2 mps 728 mmHg 88%
07:00 +19°C° 0.1 mm 2 mps 728 mmHg 88%
08:00 +19°C° 0.1 mm 2 mps 728 mmHg 84%
09:00 +20°C° 0.1 mm 2 mps 728 mmHg 81%
10:00 +20°C° 0.1 mm 3 mps 729 mmHg 77%
11:00 +21°C° 0.4 mm 3 mps 729 mmHg 74%
12:00 +22°C° 0.4 mm 3 mps 729 mmHg 71%
13:00 +22°C° 0.4 mm 3 mps 729 mmHg 67%
14:00 +22°C° 0.4 mm 3 mps 729 mmHg 71%
15:00 +21°C° 0.4 mm 4 mps 729 mmHg 74%
16:00 +21°C° 0.4 mm 4 mps 728 mmHg 77%
17:00 +20°C° 0.2 mm 3 mps 729 mmHg 79%
18:00 +19°C° 0.2 mm 3 mps 729 mmHg 82%
19:00 +19°C° 0.2 mm 2 mps 729 mmHg 84%
20:00 +18°C° 0 mm 2 mps 729 mmHg 86%
21:00 +17°C° 0 mm 2 mps 729 mmHg 89%
22:00 +15°C° 0 mm 1 mps 729 mmHg 91%
23:00 +15°C° 0 mm 1 mps 729 mmHg 91%
Show more